Tekamah, NE

7:37 AM CDT on August 17, 2017 (GMT -0500)
Tekamah

Weather History for KTQE - February, 2013

Change the Weather History Date:

Sunday, February 24, 2013

  Actual Average Record
Temperature  
Mean Temperature 22 °F -  
Max Temperature 35 °F 40 °F 68 °F (1976)
Min Temperature 10 °F 19 °F -9 °F (1965)
Degree Days  
Heating Degree Days 42    
Moisture  
Dew Point 17 °F    
Average Humidity 78    
Maximum Humidity 86    
Minimum Humidity 67    
Precipitation  
Precipitation 0.00 in - - ()
Sea Level Pressure  
Sea Level Pressure 29.99 in    
Wind  
Wind Speed 4 mph (SSE)    
Max Wind Speed 12 mph    
Max Gust Speed -    
Visibility 1 miles    
Events      
Averages and records for this station are not official NWS values.
T = Trace of Precipitation, MM = Missing Value Source: NWS Daily Summary

Daily Weather History Graph

Daily Weather History Graph

Search for Another Location

Airport or City:

Trip Planner

Search our weather history database for the weather conditions in past years. The results will help you decide how hot, cold, wet, or windy it might be!

Date:

Astronomy

Feb. 24, 2013 Rise Set
Actual Time 7:06 AM CST 6:09 PM CST
Civil Twilight 6:38 AM CST 6:37 PM CST
Nautical Twilight 6:06 AM CST 7:09 PM CST
Astronomical Twilight 5:34 AM CST 7:42 PM CST
Moon 5:21 PM CST (2/24) 6:05 AM CST (2/24)
Length of Visible Light 11h 58m
Length of Day
11h 02m
Waxing Gibbous, 99% of the Moon is Illuminated
Feb 24
Waxing Gibbous
Feb 25
Full
Mar 4
Last Quarter
Mar 11
New
Mar 19
First Quarter

Hourly Weather History & Observations

Time (CST) Temp. Windchill Dew Point Humidity Pressure Visibility Wind Dir Wind Speed Gust Speed Precip Events Conditions
12:02 AM 17.6 °F - 12.2 °F 79% 29.89 in 0.2 mi Calm Calm - N/A   Haze
12:12 AM 17.6 °F - 12.2 °F 79% 29.89 in 0.2 mi Calm Calm - N/A   Haze
12:34 AM 17.6 °F 12.3 °F 10.4 °F 73% 29.90 in 0.2 mi SSE 3.5 mph - N/A   Haze
12:45 AM 17.6 °F 10.7 °F 12.2 °F 79% 29.90 in 0.2 mi SSE 4.6 mph - N/A   Haze
12:54 AM 17.1 °F 11.7 °F 10.9 °F 77% 29.93 in 0.2 mi SSE 3.5 mph - N/A   Haze
1:39 AM 15.8 °F 7.2 °F 8.6 °F 73% 29.90 in 1.5 mi South 5.8 mph - N/A   Haze
1:54 AM 17.1 °F 8.7 °F 10.9 °F 77% 29.94 in 1.2 mi South 5.8 mph - N/A   Haze
2:52 AM 15.8 °F 7.2 °F 10.4 °F 79% 29.91 in 0.8 mi SSW 5.8 mph - N/A   Haze
2:54 AM 15.1 °F 6.4 °F 10.0 °F 80% 29.94 in 0.5 mi SSW 5.8 mph - N/A   Haze
3:04 AM 15.8 °F 6.1 °F 8.6 °F 73% 29.91 in 0.2 mi South 6.9 mph - N/A   Haze
3:27 AM 12.2 °F 2.9 °F 6.8 °F 79% 29.91 in 0.2 mi South 5.8 mph - N/A   Haze
3:42 AM 12.2 °F 2.9 °F 6.8 °F 79% 29.91 in 0.2 mi SSE 5.8 mph - N/A   Haze
3:54 AM 14.0 °F 2.9 °F 8.1 °F 77% 29.95 in 0.2 mi South 8.1 mph - N/A   Haze
4:05 AM 14.0 °F 5.1 °F 8.6 °F 79% 29.91 in 0.2 mi South 5.8 mph - N/A   Haze
4:12 AM 14.0 °F 5.1 °F 8.6 °F 79% 29.91 in 0.2 mi South 5.8 mph - N/A   Haze
4:54 AM 12.0 °F 4.1 °F 6.1 °F 77% 29.95 in 0.2 mi South 4.6 mph - N/A   Haze
5:54 AM 10.9 °F 1.4 °F 5.0 °F 77% 29.97 in 0.2 mi South 5.8 mph - N/A   Haze
6:43 AM 10.4 °F 0.8 °F 3.2 °F 73% 29.94 in 0.2 mi SSE 5.8 mph - N/A   Haze
7:02 AM 10.4 °F - 3.2 °F 73% 29.94 in 0.8 mi Calm Calm - N/A   Haze
7:27 AM 17.6 °F - 12.2 °F 79% 29.95 in 1.0 mi Calm Calm - N/A   Haze
7:54 AM 19.9 °F - 14.0 °F 78% 30.00 in 1.0 mi Calm Calm - N/A   Haze
8:37 AM 24.8 °F - 19.4 °F 80% 29.97 in 1.2 mi Calm Calm - N/A   Haze
8:54 AM 25.0 °F 20.7 °F 19.0 °F 78% 30.02 in 1.2 mi SSE 3.5 mph - N/A   Haze
9:54 AM 28.9 °F 23.9 °F 24.1 °F 82% 30.03 in 1.5 mi SSE 4.6 mph - N/A   Haze
10:54 AM 28.0 °F 22.8 °F 23.0 °F 81% 30.05 in 1.8 mi SSE 4.6 mph - N/A   Haze
11:18 AM 28.4 °F 23.3 °F 23.0 °F 80% 30.01 in 2.0 mi SE 4.6 mph - N/A   Haze
11:54 AM 30.0 °F 24.1 °F 24.1 °F 79% 30.05 in 2.0 mi SE 5.8 mph - N/A   Haze
12:54 PM 32.0 °F 28.7 °F 25.0 °F 75% 30.04 in 2.0 mi SSE 3.5 mph - N/A   Haze
1:54 PM 34.0 °F - 25.0 °F 70% 30.01 in 2.5 mi Calm Calm - N/A   Haze
2:54 PM 35.1 °F - 25.0 °F 67% 30.02 in 2.5 mi Calm Calm - N/A   Haze
3:54 PM 35.1 °F - 26.1 °F 70% 30.01 in 2.5 mi Calm Calm - N/A   Haze
4:54 PM 35.1 °F 32.2 °F 26.1 °F 70% 30.02 in 2.5 mi North 3.5 mph - N/A   Haze
5:54 PM 34.0 °F - 27.0 °F 75% 30.04 in 2.5 mi Calm Calm - N/A   Haze
6:54 PM 30.0 °F 20.5 °F 25.0 °F 82% 30.06 in 2.0 mi North 11.5 mph - N/A   Haze
7:09 PM 30.2 °F 21.9 °F 24.8 °F 80% 30.04 in 1.8 mi North 9.2 mph - N/A   Haze
7:42 PM 28.4 °F 19.7 °F 24.8 °F 86% 30.05 in 2.0 mi North 9.2 mph - N/A   Haze
7:54 PM 28.9 °F 19.2 °F 23.0 °F 78% 30.08 in 2.0 mi North 11.5 mph - N/A   Haze
8:04 PM 28.4 °F 18.5 °F 23.0 °F 80% 30.06 in 1.8 mi North 11.5 mph - N/A   Haze
8:13 PM 28.4 °F 19.1 °F 23.0 °F 80% 30.06 in 2.0 mi North 10.4 mph - N/A   Haze
8:54 PM 28.9 °F 21.1 °F 23.0 °F 78% 30.10 in 2.5 mi North 8.1 mph - N/A   Haze
9:54 PM 28.0 °F 20.0 °F 23.0 °F 81% 30.12 in 2.0 mi North 8.1 mph - N/A   Haze
10:54 PM 27.0 °F 18.7 °F 23.0 °F 85% 30.12 in 2.0 mi North 8.1 mph - N/A   Overcast
11:54 PM 27.0 °F 19.5 °F 21.9 °F 81% 30.12 in 2.0 mi NNW 6.9 mph - N/A   Haze